Location: *
(50.3194°N, 7.1067°E)
Time: 04:35:43
(UTC+00:00)

Cosmos 676 Rocket - Pass Details

Date: 22 September 2019
Orbit: 755 x 783 km, 74.0° (Epoch: 19 October)

Event Time Altitude Azimuth Distance (km) Brightness Sun altitude
Rises 18:17:04 0° 338° (NNW) 3,263 7.7 -8.2°
Reaches altitude 10° 18:19:33 10° 344° (NNW) 2,327 6.9 -8.6°
Maximum altitude 18:24:40 49° 59° (ENE) 994 4.3 -9.4°
Drops below altitude 10° 18:29:42 10° 134° (SE) 2,294 6.0 -10.2°
Enters shadow 18:30:06 - 136° (SE) 2,441 6.1 -10.3°
